Location: Newark
(41.0400°S, 62.7845°W)
Time: 08:23:20
(UTC+00:00)

Courier 1B Rocket - Pass Details

Date: 04 December 2021
Orbit: 920 x 1202 km, 28.3° (Epoch: 28 January)

Event Time Altitude Azimuth Distance (km) Brightness Sun altitude
Rises 16:04:43 0° 294° (WNW) 4,029 8.3 71.3°
Reaches altitude 10° 16:07:50 10° 304° (WNW) 3,097 7.9 71.2°
Maximum altitude 16:14:27 31° 2° (N) 1,953 7.5 71.1°
Drops below altitude 10° 16:21:10 10° 61° (ENE) 3,137 7.9 70.8°
Sets 16:24:21 0° 70° (ENE) 4,088 8.3 70.7°
